Weather History for Cheyenne, WY

Change the Weather History Date:

Monday, November 25, 2013

  Actual Average Record
Temperature  
Mean Temperature 34 °F 31 °F  
Max Temperature 43 °F 42 °F 71 °F (1990)
Min Temperature 25 °F 21 °F -11 °F (1993)
Degree Days  
Heating Degree Days 31 34  
Month to date heating degree days 714 716  
Since 1 July heating degree days 1572 1575  
Cooling Degree Days 0 0  
Month to date cooling degree days 0 0  
Year to date cooling degree days 520 348  
Moisture  
Dew Point 19 °F    
Average Humidity 60    
Maximum Humidity 81    
Minimum Humidity 39    
Precipitation  
Precipitation 0.00 in 0.02 in 0.48 in (1944)
Month to date precipitation 0.15 0.50  
Year to date precipitation 17.67 15.36  
Snow  
Snow 0.00 in 0.30 in 4.20 in (1978)
Month to date snowfall 3.1 6.5  
Since 1 July snowfall 15.6 12.8  
Snow Depth T in    
Sea Level Pressure  
Sea Level Pressure 30.23 in    
Wind  
Wind Speed 8 mph (NNW)    
Max Wind Speed 21 mph    
Max Gust Speed 26 mph    
Visibility 10 miles    
Events      
T = Trace of Precipitation, MM = Missing Value Source: NWS Daily Summary

Daily Weather History Graph

Daily Weather History Graph

Search for Another Location

Airport:

Trip Planner

Search our weather history database for the weather conditions in past years. The results will help you decide how hot, cold, wet, or windy it might be!

Date:

Astronomy

Nov. 25, 2013 Rise Set
Actual Time 6:59 AM MST 4:33 PM MST
Civil Twilight 6:28 AM MST 5:03 PM MST
Nautical Twilight 5:54 AM MST 5:37 PM MST
Astronomical Twilight 5:21 AM MST 6:10 PM MST
Moon No Moon Rise 12:15 PM MST (11/25)
Length of Visible Light 10h 34m
Length of Day
9h 34m
Waning Gibbous, 50% of the Moon is Illuminated
Nov 25
Waning Gibbous
Nov 25
Last Quarter
Dec 2
New
Dec 9
First Quarter
Dec 17
Full

Hourly Weather History & Observations

Time (MST) Temp. Windchill Dew Point Humidity Pressure Visibility Wind Dir Wind Speed Gust Speed Precip Events Conditions
12:53 AM 32.0 °F 22.5 °F 15.1 °F 50% 30.03 in 10.0 mi NW 12.7 mph 19.6 mph N/A   Clear
1:53 AM 32.0 °F 20.8 °F 15.1 °F 50% 30.02 in 10.0 mi NNW 17.3 mph - N/A   Clear
2:53 AM 32.0 °F 20.8 °F 16.0 °F 52% 30.04 in 10.0 mi NNW 17.3 mph - N/A   Clear
3:53 AM 30.9 °F 22.8 °F 17.1 °F 57% 30.09 in 10.0 mi North 9.2 mph - N/A   Clear
4:53 AM 30.0 °F 21.7 °F 18.0 °F 61% 30.14 in 10.0 mi North 9.2 mph - N/A   Partly Cloudy
5:53 AM 30.9 °F 24.3 °F 19.0 °F 61% 30.18 in 10.0 mi North 6.9 mph - N/A   Overcast
6:53 AM 30.0 °F 26.5 °F 18.0 °F 61% 30.22 in 10.0 mi North 3.5 mph - N/A   Overcast
7:53 AM 30.9 °F 26.2 °F 18.0 °F 59% 30.25 in 10.0 mi NNW 4.6 mph - N/A   Overcast
8:53 AM 32.0 °F 26.4 °F 18.0 °F 56% 30.27 in 10.0 mi North 5.8 mph - N/A   Overcast
9:53 AM 34.0 °F 28.8 °F 18.0 °F 52% 30.26 in 10.0 mi NNW 5.8 mph - N/A   Overcast
10:53 AM 37.0 °F 34.5 °F 18.0 °F 46% 30.25 in 10.0 mi North 3.5 mph - N/A   Overcast
11:53 AM 39.9 °F 35.1 °F 18.0 °F 41% 30.23 in 10.0 mi NW 6.9 mph - N/A   Mostly Cloudy
12:53 PM 42.1 °F 36.6 °F 19.0 °F 40% 30.20 in 10.0 mi NNE 9.2 mph - N/A   Overcast
1:53 PM 42.1 °F 36.1 °F 21.0 °F 43% 30.19 in 10.0 mi North 10.4 mph 18.4 mph N/A   Overcast
2:53 PM 42.1 °F 35.2 °F 21.0 °F 43% 30.21 in 10.0 mi North 12.7 mph 18.4 mph N/A   Overcast
3:53 PM 39.0 °F 32.3 °F 21.0 °F 49% 30.25 in 10.0 mi NNE 10.4 mph - N/A   Mostly Cloudy
4:53 PM 34.0 °F 28.0 °F 21.0 °F 59% 30.29 in 10.0 mi North 6.9 mph - N/A   Partly Cloudy
5:53 PM 32.0 °F 27.5 °F 19.9 °F 61% 30.30 in 10.0 mi North 4.6 mph - N/A   Clear
6:53 PM 30.0 °F 25.2 °F 19.9 °F 66% 30.34 in 10.0 mi NW 4.6 mph - N/A   Mostly Cloudy
7:53 PM 25.0 °F 17.1 °F 19.9 °F 81% 30.37 in 10.0 mi West 6.9 mph - N/A   Clear
8:53 PM 30.0 °F 21.1 °F 19.9 °F 66% 30.35 in 10.0 mi NNW 10.4 mph - N/A   Partly Cloudy
9:53 PM 30.0 °F 20.5 °F 19.9 °F 66% 30.34 in 10.0 mi North 11.5 mph - N/A   Clear
10:53 PM 28.0 °F 21.7 °F 19.9 °F 72% 30.34 in 10.0 mi NW 5.8 mph - N/A   Clear
11:53 PM 27.0 °F 20.5 °F 19.9 °F 75% 30.33 in 10.0 mi WNW 5.8 mph - N/A   Overcast